SR1WXZ Weather Reports


time (UTC)temp
C
wind
direction
speed
KPH
gust
KPH
rain 1hr
cm
rain 24hr
cm
rain mn
cm
humidity
%
barometer
mb
20260502190830 21 140 11.3 0.0 0.00 0.00 0.00 32 1015.0
20260502190037 21 140 11.3 0.0 0.00 0.00 0.00 32 1015.0
20260502184834 21 140 11.3 0.0 0.00 0.00 0.00 32 1015.0
20260502184538 21 140 11.3 0.0 0.00 0.00 0.00 32 1015.0
20260502183036 22 160 12.9 0.0 0.00 0.00 0.00 26 1016.0
20260502182832 22 160 12.9 0.0 0.00 0.00 0.00 26 1016.0
20260502181539 22 160 12.9 0.0 0.00 0.00 0.00 26 1016.0
20260502180830 23 170 16.1 0.0 0.00 0.00 0.00 25 1016.0
20260502163036 25 180 16.1 0.0 0.00 0.00 0.00 23 1016.0
20260502162833 25 180 16.1 0.0 0.00 0.00 0.00 23 1016.0
20260502161539 25 180 16.1 0.0 0.00 0.00 0.00 23 1016.0
20260502160831 26 190 14.5 0.0 0.00 0.00 0.00 20 1017.0
20260502151539 26 170 14.5 0.0 0.00 0.00 0.00 24 1017.0
20260502150832 26 180 12.9 0.0 0.00 0.00 0.00 25 1018.0
20260502123041 25 170 20.9 0.0 0.00 0.00 0.00 27 1020.0
20260502122832 25 170 20.9 0.0 0.00 0.00 0.00 27 1020.0
20260502121539 25 170 20.9 0.0 0.00 0.00 0.00 27 1020.0
20260502120831 25 220 14.5 0.0 0.00 0.00 0.00 27 1020.0
20260502114834 25 220 14.5 0.0 0.00 0.00 0.00 27 1020.0
20260502114537 25 220 14.5 0.0 0.00 0.00 0.00 27 1020.0
20260502113036 23 210 19.3 0.0 0.00 0.00 0.00 29 1021.0
20260502112832 23 210 19.3 0.0 0.00 0.00 0.00 29 1021.0
20260502111539 23 210 19.3 0.0 0.00 0.00 0.00 29 1021.0
20260502110830 23 230 16.1 0.0 0.00 0.00 0.00 29 1021.0
20260502110036 23 230 16.1 0.0 0.00 0.00 0.00 29 1021.0
20260502104834 23 230 16.1 0.0 0.00 0.00 0.00 29 1021.0
20260502104537 23 230 16.1 0.0 0.00 0.00 0.00 29 1021.0
20260502103036 23 200 16.1 0.0 0.00 0.00 0.00 27 1021.0
20260502102833 23 200 16.1 0.0 0.00 0.00 0.00 27 1021.0
20260502101538 23 200 16.1 0.0 0.00 0.00 0.00 27 1021.0
20260502100831 22 190 12.9 33.8 0.00 0.00 0.00 28 1022.0
20260502090830 21 160 16.1 0.0 0.00 0.00 0.00 32 1022.0
20260502070832 15 150 9.7 0.0 0.00 0.00 0.00 44 1023.0
20260502070036 15 150 9.7 0.0 0.00 0.00 0.00 44 1023.0
20260502064834 15 150 9.7 0.0 0.00 0.00 0.00 44 1023.0
20260502064537 15 150 9.7 0.0 0.00 0.00 0.00 44 1023.0
20260502063036 13 150 11.3 0.0 0.00 0.00 0.00 47 1023.0
20260502062832 13 150 11.3 0.0 0.00 0.00 0.00 47 1023.0
20260502061539 13 150 11.3 0.0 0.00 0.00 0.00 47 1023.0
20260502060831 12 140 8.0 0.0 0.00 0.00 0.00 54 1023.0
20260502060036 12 140 8.0 0.0 0.00 0.00 0.00 54 1023.0
20260502054835 12 140 8.0 0.0 0.00 0.00 0.00 54 1023.0
20260502054538 12 140 8.0 0.0 0.00 0.00 0.00 54 1023.0
20260502053036 10 110 9.7 0.0 0.00 0.00 0.00 66 1023.0
20260502052833 10 110 9.7 0.0 0.00 0.00 0.00 66 1023.0
20260502051538 10 110 9.7 0.0 0.00 0.00 0.00 66 1023.0
20260502050832 6 110 9.7 0.0 0.00 0.00 0.00 75 1024.0
20260502050036 6 110 9.7 0.0 0.00 0.00 0.00 75 1024.0
20260502044835 6 110 9.7 0.0 0.00 0.00 0.00 75 1024.0
20260502044538 6 110 9.7 0.0 0.00 0.00 0.00 75 1024.0
20260502043036 3 110 9.7 0.0 0.00 0.00 0.00 75 1024.0
20260502042833 3 110 9.7 0.0 0.00 0.00 0.00 75 1024.0
20260502041538 3 110 9.7 0.0 0.00 0.00 0.00 75 1024.0
20260502040832 2 110 8.0 0.0 0.00 0.00 0.00 80 1024.0
20260502040036 2 110 8.0 0.0 0.00 0.00 0.00 80 1024.0
20260502034835 2 110 8.0 0.0 0.00 0.00 0.00 80 1024.0
20260502034537 2 110 8.0 0.0 0.00 0.00 0.00 80 1024.0
20260502033035 3 130 4.8 0.0 0.00 0.00 0.00 80 1024.0
20260502032833 3 130 4.8 0.0 0.00 0.00 0.00 80 1024.0
20260502031539 3 130 4.8 0.0 0.00 0.00 0.00 80 1024.0
20260502030831 2 120 1.6 0.0 0.00 0.00 0.00 86 1024.0
20260502030036 2 120 1.6 0.0 0.00 0.00 0.00 86 1024.0
20260502024835 2 120 1.6 0.0 0.00 0.00 0.00 86 1024.0
20260502024537 2 120 1.6 0.0 0.00 0.00 0.00 86 1024.0
20260502023035 2 90 1.6 0.0 0.00 0.00 0.00 86 1024.0
20260502022833 2 90 1.6 0.0 0.00 0.00 0.00 86 1024.0
20260502021538 2 90 1.6 0.0 0.00 0.00 0.00 86 1024.0
20260502020831 3 110 3.2 0.0 0.00 0.00 0.00 80 1024.0
20260502020036 3 110 3.2 0.0 0.00 0.00 0.00 80 1024.0
20260502014834 3 110 3.2 0.0 0.00 0.00 0.00 80 1024.0
20260502014537 3 110 3.2 0.0 0.00 0.00 0.00 80 1024.0
20260502013035 6 60 1.6 0.0 0.00 0.00 0.00 75 1024.0
20260502012832 6 60 1.6 0.0 0.00 0.00 0.00 75 1024.0
20260502011538 6 60 1.6 0.0 0.00 0.00 0.00 75 1024.0
20260502010830 3 90 3.2 0.0 0.00 0.00 0.00 80 1024.0
20260502010036 3 90 3.2 0.0 0.00 0.00 0.00 80 1024.0
20260502004834 3 90 3.2 0.0 0.00 0.00 0.00 80 1024.0
20260502004537 3 90 3.2 0.0 0.00 0.00 0.00 80 1024.0
20260502003035 3 100 3.2 0.0 0.00 0.00 0.00 80 1025.0
20260502002833 3 100 3.2 0.0 0.00 0.00 0.00 80 1025.0
20260502001538 3 100 3.2 0.0 0.00 0.00 0.00 80 1025.0
20260502000831 6 100 3.2 0.0 0.00 0.00 0.00 75 1025.0
20260502000036 6 100 3.2 0.0 0.00 0.00 0.00 75 1025.0
20260501234834 6 100 3.2 0.0 0.00 0.00 0.00 75 1025.0
20260501234536 6 100 3.2 0.0 0.00 0.00 0.00 75 1025.0
20260501233035 7 0.0 0.0 0.00 0.00 0.00 65 1025.0
20260501232833 7 0.0 0.0 0.00 0.00 0.00 65 1025.0
20260501231538 7 0.0 0.0 0.00 0.00 0.00 65 1025.0
20260501230831 7 90 3.2 0.0 0.00 0.00 0.00 70 1025.0
20260501230036 7 90 3.2 0.0 0.00 0.00 0.00 70 1025.0
20260501224834 7 90 3.2 0.0 0.00 0.00 0.00 70 1025.0
20260501224537 7 90 3.2 0.0 0.00 0.00 0.00 70 1025.0
20260501223035 7 120 4.8 0.0 0.00 0.00 0.00 65 1025.0
20260501222833 7 120 4.8 0.0 0.00 0.00 0.00 65 1025.0
20260501221544 7 120 4.8 0.0 0.00 0.00 0.00 65 1025.0
20260501220831 7 100 3.2 0.0 0.00 0.00 0.00 65 1025.0
20260501220036 7 100 3.2 0.0 0.00 0.00 0.00 65 1025.0
20260501214840 7 100 3.2 0.0 0.00 0.00 0.00 65 1025.0
20260501214537 7 100 3.2 0.0 0.00 0.00 0.00 65 1025.0
20260501213035 8 110 3.2 0.0 0.00 0.00 0.00 61 1025.0
20260501212839 8 110 3.2 0.0 0.00 0.00 0.00 61 1025.0
20260501211640 8 110 3.2 0.0 0.00 0.00 0.00 61 1025.0
20260501210837 10 0.0 0.0 0.00 0.00 0.00 57 1025.0
20260501210035 10 0.0 0.0 0.00 0.00 0.00 57 1025.0
20260501204834 10 0.0 0.0 0.00 0.00 0.00 57 1025.0
20260501204537 10 0.0 0.0 0.00 0.00 0.00 57 1025.0
20260501203035 12 350 1.6 0.0 0.00 0.00 0.00 46 1025.0
20260501202832 12 350 1.6 0.0 0.00 0.00 0.00 46 1025.0
20260501201538 12 350 1.6 0.0 0.00 0.00 0.00 46 1025.0
20260501200831 12 0.0 0.0 0.00 0.00 0.00 43 1025.0
20260501200035 12 0.0 0.0 0.00 0.00 0.00 43 1025.0
20260501194834 12 0.0 0.0 0.00 0.00 0.00 43 1025.0
20260501194536 12 0.0 0.0 0.00 0.00 0.00 43 1025.0
20260501193035 15 10 3.2 0.0 0.00 0.00 0.00 38 1025.0
20260501192832 15 10 3.2 0.0 0.00 0.00 0.00 38 1025.0
20260501191538 15 10 3.2 0.0 0.00 0.00 0.00 38 1025.0